| time (UTC) | temp F | wind direction | speed MPH | gust MPH | rain 1hr in | rain 24hr in | rain mn in | humidity % | barometer mb |
| 20260510033606 | 47 | 87 | 2.0 | 3.0 | 0.00 | 0.00 | 0.00 | 99 | 1011.7 |
| 20260510033103 | 46 | 199 | 0.0 | 2.0 | 0.00 | 0.00 | 0.00 | 99 | 1011.8 |
| 20260510032559 | 47 | 157 | 2.0 | 3.0 | 0.00 | 0.00 | 0.00 | 99 | 1011.9 |
| 20260510032055 | 47 | 63 | 0.0 | 2.0 | 0.00 | 0.00 | 0.00 | 99 | 1011.7 |
| 20260510031550 | 47 | 105 | 2.0 | 2.0 | 0.00 | 0.00 | 0.00 | 99 | 1011.9 |
| 20260510031047 | 48 | 224 | 0.0 | 2.0 | 0.00 | 0.00 | 0.00 | 99 | 1011.8 |
| 20260510030542 | 47 | 103 | 0.0 | 3.0 | 0.00 | 0.00 | 0.00 | 99 | 1011.7 |
| 20260510030040 | 47 | 124 | 0.0 | 1.0 | 0.00 | 0.00 | 0.00 | 99 | 1011.7 |
| 20260510025537 | 48 | 186 | 0.0 | 0.0 | 0.00 | 0.00 | 0.00 | 99 | 1011.8 |
| 20260510025035 | 47 | 126 | 1.0 | 3.0 | 0.00 | 0.00 | 0.00 | 99 | 1011.7 |
| 20260510024531 | 47 | 95 | 2.0 | 3.0 | 0.00 | 0.00 | 0.00 | 99 | 1011.8 |
| 20260510024027 | 47 | 230 | 0.0 | 1.0 | 0.00 | 0.00 | 0.00 | 99 | 1011.9 |
| 20260510023523 | 47 | 75 | 0.0 | 1.0 | 0.00 | 0.00 | 0.00 | 99 | 1011.8 |
| 20260510023021 | 47 | 75 | 0.0 | 1.0 | 0.00 | 0.00 | 0.00 | 99 | 1011.7 |
| 20260510022520 | 47 | 67 | 0.0 | 1.0 | 0.00 | 0.00 | 0.00 | 99 | 1011.7 |
| 20260510022020 | 48 | 117 | 2.0 | 2.0 | 0.00 | 0.00 | 0.00 | 99 | 1012.0 |
| 20260510021517 | 48 | 124 | 2.0 | 3.0 | 0.00 | 0.00 | 0.00 | 99 | 1011.8 |
| 20260510021014 | 48 | 166 | 0.0 | 2.0 | 0.00 | 0.00 | 0.00 | 99 | 1011.8 |
| 20260510020508 | 47 | 89 | 0.0 | 2.0 | 0.00 | 0.00 | 0.00 | 99 | 1011.7 |
| 20260510020004 | 48 | 55 | 0.0 | 2.0 | 0.00 | 0.00 | 0.00 | 99 | 1011.6 |
| 20260510015459 | 48 | 94 | 1.0 | 2.0 | 0.00 | 0.00 | 0.00 | 99 | 1011.7 |
| 20260510014955 | 48 | 39 | 1.0 | 2.0 | 0.00 | 0.00 | 0.00 | 99 | 1011.7 |
| 20260510014453 | 48 | 103 | 1.0 | 2.0 | 0.00 | 0.00 | 0.00 | 99 | 1011.6 |
| 20260510013949 | 48 | 141 | 0.0 | 2.0 | 0.00 | 0.00 | 0.00 | 99 | 1011.7 |
| 20260510013444 | 48 | 73 | 2.0 | 3.0 | 0.00 | 0.00 | 0.00 | 99 | 1011.6 |
| 20260510012940 | 49 | 128 | 2.0 | 2.0 | 0.00 | 0.00 | 0.00 | 99 | 1011.5 |
| 20260510012435 | 49 | 122 | 2.0 | 2.0 | 0.00 | 0.00 | 0.00 | 99 | 1011.6 |
| 20260510011930 | 49 | 118 | 0.0 | 3.0 | 0.00 | 0.00 | 0.00 | 99 | 1011.4 |
| 20260510011425 | 50 | 205 | 2.0 | 3.0 | 0.00 | 0.00 | 0.00 | 99 | 1011.2 |
| 20260510010921 | 50 | 110 | 0.0 | 2.0 | 0.00 | 0.00 | 0.00 | 99 | 1011.2 |
| 20260510010419 | 50 | 208 | 1.0 | 3.0 | 0.00 | 0.00 | 0.00 | 99 | 1011.4 |
| 20260510005916 | 50 | 177 | 1.0 | 2.0 | 0.00 | 0.00 | 0.00 | 99 | 1011.4 |
| 20260510005412 | 50 | 112 | 2.0 | 2.0 | 0.00 | 0.00 | 0.00 | 99 | 1011.1 |
| 20260510004909 | 51 | 196 | 1.0 | 3.0 | 0.00 | 0.00 | 0.00 | 99 | 1011.1 |
| 20260510004407 | 51 | 165 | 0.0 | 4.0 | 0.00 | 0.00 | 0.00 | 99 | 1011.1 |
| 20260510003904 | 51 | 159 | 2.0 | 3.0 | 0.00 | 0.00 | 0.00 | 99 | 1010.9 |
| 20260510003401 | 52 | 190 | 2.0 | 3.0 | 0.00 | 0.00 | 0.00 | 99 | 1011.0 |
| 20260510002900 | 52 | 207 | 1.0 | 3.0 | 0.00 | 0.00 | 0.00 | 99 | 1011.0 |
| 20260510002358 | 52 | 117 | 0.0 | 1.0 | 0.00 | 0.00 | 0.00 | 99 | 1011.1 |
| 20260510001854 | 53 | 147 | 0.0 | 2.0 | 0.00 | 0.00 | 0.00 | 99 | 1011.1 |
| 20260510001352 | 53 | 119 | 0.0 | 1.0 | 0.00 | 0.00 | 0.00 | 99 | 1011.0 |
| 20260510000848 | 53 | 50 | 0.0 | 1.0 | 0.00 | 0.00 | 0.00 | 99 | 1011.0 |
| 20260510000345 | 54 | 49 | 0.0 | 0.0 | 0.00 | 0.00 | 0.00 | 98 | 1011.1 |
| 20260509235842 | 54 | 84 | 1.0 | 2.0 | 0.00 | 0.00 | 0.00 | 97 | 1011.1 |
| 20260509235338 | 55 | 69 | 0.0 | 1.0 | 0.00 | 0.00 | 0.00 | 97 | 1011.1 |
| 20260509234834 | 55 | 87 | 1.0 | 2.0 | 0.00 | 0.00 | 0.00 | 96 | 1011.0 |
| 20260509234331 | 55 | 88 | 3.0 | 3.0 | 0.00 | 0.00 | 0.00 | 95 | 1010.7 |
| 20260509233830 | 56 | 140 | 0.0 | 4.0 | 0.00 | 0.00 | 0.00 | 95 | 1010.8 |
| 20260509233327 | 56 | 256 | 2.0 | 4.0 | 0.00 | 0.00 | 0.00 | 94 | 1010.8 |
| 20260509232822 | 56 | 220 | 2.0 | 3.0 | 0.00 | 0.00 | 0.00 | 94 | 1010.8 |
| 20260509232320 | 57 | 167 | 1.0 | 5.0 | 0.00 | 0.00 | 0.00 | 93 | 1010.6 |
| 20260509231816 | 57 | 37 | 2.0 | 4.0 | 0.00 | 0.00 | 0.00 | 92 | 1010.4 |
| 20260509231313 | 57 | 97 | 0.0 | 6.0 | 0.00 | 0.00 | 0.00 | 91 | 1010.6 |
| 20260509230811 | 57 | 65 | 3.0 | 8.0 | 0.00 | 0.00 | 0.00 | 91 | 1010.5 |
| 20260509230308 | 58 | 330 | 2.0 | 7.0 | 0.00 | 0.00 | 0.00 | 89 | 1010.4 |
| 20260509225802 | 62 | 197 | 3.0 | 7.0 | 0.00 | 0.00 | 0.00 | 83 | 1010.6 |
| 20260509225300 | 62 | 165 | 5.0 | 8.0 | 0.00 | 0.00 | 0.00 | 82 | 1010.5 |
| 20260509224755 | 62 | 102 | 2.0 | 5.0 | 0.00 | 0.00 | 0.00 | 82 | 1010.6 |
| 20260509224252 | 61 | 92 | 3.0 | 7.0 | 0.00 | 0.00 | 0.00 | 84 | 1010.5 |
| 20260509223749 | 60 | 83 | 6.0 | 9.0 | 0.00 | 0.00 | 0.00 | 86 | 1010.5 |
| 20260509223246 | 60 | 213 | 5.0 | 7.0 | 0.00 | 0.00 | 0.00 | 85 | 1010.5 |
| 20260509222743 | 60 | 102 | 3.0 | 11.0 | 0.00 | 0.00 | 0.00 | 86 | 1010.6 |
| 20260509222238 | 60 | 123 | 4.0 | 9.0 | 0.00 | 0.00 | 0.00 | 86 | 1010.8 |
| 20260509221734 | 61 | 118 | 5.0 | 7.0 | 0.00 | 0.00 | 0.00 | 86 | 1010.9 |
| 20260509221231 | 60 | 79 | 3.0 | 7.0 | 0.00 | 0.00 | 0.00 | 87 | 1010.8 |
| 20260509220726 | 59 | 125 | 5.0 | 10.0 | 0.00 | 0.00 | 0.00 | 89 | 1010.6 |
| 20260509220223 | 60 | 108 | 5.0 | 9.0 | 0.00 | 0.00 | 0.00 | 87 | 1010.8 |
| 20260509215719 | 59 | 118 | 6.0 | 9.0 | 0.00 | 0.00 | 0.00 | 89 | 1010.7 |
| 20260509215215 | 58 | 180 | 1.0 | 10.0 | 0.00 | 0.00 | 0.00 | 90 | 1010.7 |
| 20260509214713 | 59 | 92 | 4.0 | 8.0 | 0.00 | 0.00 | 0.00 | 90 | 1010.8 |
| 20260509214210 | 58 | 66 | 2.0 | 9.0 | 0.00 | 0.00 | 0.00 | 92 | 1010.9 |
| 20260509213707 | 57 | 109 | 2.0 | 6.0 | 0.00 | 0.00 | 0.00 | 94 | 1011.2 |
| 20260509213202 | 57 | 83 | 4.0 | 8.0 | 0.00 | 0.00 | 0.00 | 95 | 1011.0 |
| 20260509212700 | 57 | 229 | 4.0 | 12.0 | 0.00 | 0.00 | 0.00 | 96 | 1010.9 |
| 20260509212156 | 56 | 103 | 1.0 | 4.0 | 0.00 | 0.00 | 0.00 | 96 | 1011.0 |
| 20260509211652 | 55 | 151 | 2.0 | 9.0 | 0.00 | 0.00 | 0.00 | 97 | 1011.1 |
| 20260509211149 | 55 | 342 | 1.0 | 6.0 | 0.00 | 0.00 | 0.00 | 98 | 1011.1 |
| 20260509210646 | 55 | 94 | 0.0 | 6.0 | 0.00 | 0.00 | 0.00 | 99 | 1011.1 |
| 20260509210143 | 55 | 122 | 3.0 | 8.0 | 0.00 | 0.00 | 0.00 | 99 | 1011.5 |
| 20260509205638 | 54 | 103 | 3.0 | 8.0 | 0.00 | 0.00 | 0.00 | 99 | 1011.5 |
| 20260509205132 | 55 | 290 | 2.0 | 7.0 | 0.00 | 0.00 | 0.00 | 99 | 1011.5 |
| 20260509204629 | 54 | 84 | 4.0 | 8.0 | 0.00 | 0.00 | 0.00 | 99 | 1011.6 |
| 20260509204125 | 54 | 119 | 2.0 | 10.0 | 0.00 | 0.00 | 0.00 | 99 | 1011.6 |
| 20260509203621 | 54 | 118 | 6.0 | 13.0 | 0.00 | 0.00 | 0.00 | 99 | 1011.7 |
| 20260509203120 | 55 | 124 | 4.0 | 7.0 | 0.00 | 0.00 | 0.00 | 99 | 1011.7 |
| 20260509202619 | 55 | 50 | 0.0 | 7.0 | 0.00 | 0.00 | 0.00 | 99 | 1011.6 |
| 20260509202115 | 55 | 115 | 4.0 | 8.0 | 0.00 | 0.00 | 0.00 | 99 | 1011.6 |
| 20260509201610 | 55 | 41 | 3.0 | 5.0 | 0.00 | 0.00 | 0.00 | 99 | 1011.5 |
| 20260509201109 | 54 | 129 | 1.0 | 6.0 | 0.00 | 0.00 | 0.00 | 99 | 1011.5 |
| 20260509200609 | 54 | 50 | 3.0 | 6.0 | 0.00 | 0.00 | 0.00 | 99 | 1011.4 |
| 20260509200104 | 53 | 103 | 2.0 | 8.0 | 0.00 | 0.00 | 0.00 | 99 | 1011.4 |
| 20260509195600 | 53 | 108 | 3.0 | 5.0 | 0.00 | 0.00 | 0.00 | 99 | 1011.3 |
| 20260509195055 | 53 | 187 | 0.0 | 5.0 | 0.00 | 0.00 | 0.00 | 99 | 1011.4 |
| 20260509194555 | 53 | 79 | 3.0 | 5.0 | 0.00 | 0.00 | 0.00 | 99 | 1011.5 |
| 20260509194053 | 53 | 106 | 3.0 | 5.0 | 0.00 | 0.00 | 0.00 | 99 | 1011.8 |
| 20260509193549 | 52 | 117 | 2.0 | 6.0 | 0.00 | 0.00 | 0.00 | 99 | 1011.8 |
| 20260509193045 | 53 | 113 | 3.0 | 6.0 | 0.00 | 0.00 | 0.00 | 99 | 1011.8 |
| 20260509192542 | 53 | 65 | 3.0 | 5.0 | 0.00 | 0.00 | 0.00 | 99 | 1011.9 |
| 20260509192037 | 53 | 337 | 0.0 | 4.0 | 0.00 | 0.00 | 0.00 | 99 | 1012.2 |
| 20260509191537 | 52 | 119 | 0.0 | 5.0 | 0.00 | 0.00 | 0.00 | 99 | 1012.4 |
| 20260509191033 | 52 | 103 | 1.0 | 5.0 | 0.00 | 0.00 | 0.00 | 99 | 1012.3 |
| 20260509190530 | 53 | 105 | 3.0 | 8.0 | 0.00 | 0.00 | 0.00 | 99 | 1012.3 |
| 20260509190028 | 52 | 168 | 1.0 | 4.0 | 0.00 | 0.00 | 0.00 | 99 | 1012.6 |
| 20260509185525 | 53 | 94 | 3.0 | 5.0 | 0.00 | 0.00 | 0.00 | 99 | 1012.3 |
| 20260509185021 | 52 | 139 | 5.0 | 7.0 | 0.00 | 0.00 | 0.00 | 99 | 1012.4 |
| 20260509184520 | 52 | 84 | 2.0 | 5.0 | 0.00 | 0.00 | 0.00 | 99 | 1012.6 |
| 20260509184016 | 53 | 334 | 1.0 | 6.0 | 0.00 | 0.00 | 0.00 | 99 | 1012.5 |
| 20260509183511 | 52 | 158 | 1.0 | 5.0 | 0.00 | 0.00 | 0.00 | 99 | 1012.6 |
| 20260509183007 | 53 | 134 | 2.0 | 6.0 | 0.00 | 0.00 | 0.00 | 99 | 1012.4 |
| 20260509182503 | 52 | 96 | 1.0 | 5.0 | 0.00 | 0.00 | 0.00 | 99 | 1012.6 |
| 20260509182001 | 52 | 58 | 3.0 | 5.0 | 0.00 | 0.00 | 0.00 | 99 | 1012.6 |
| 20260509181459 | 53 | 86 | 4.0 | 6.0 | 0.00 | 0.00 | 0.00 | 99 | 1012.6 |
| 20260509180956 | 53 | 208 | 4.0 | 7.0 | 0.00 | 0.00 | 0.00 | 99 | 1012.7 |
| 20260509180451 | 52 | 112 | 4.0 | 7.0 | 0.00 | 0.00 | 0.00 | 99 | 1012.5 |
| 20260509175949 | 52 | 102 | 3.0 | 5.0 | 0.00 | 0.00 | 0.00 | 99 | 1012.6 |
| 20260509175444 | 53 | 161 | 2.0 | 6.0 | 0.00 | 0.00 | 0.00 | 99 | 1012.4 |
| 20260509174941 | 52 | 81 | 0.0 | 6.0 | 0.00 | 0.00 | 0.00 | 99 | 1012.5 |
| 20260509174437 | 52 | 105 | 3.0 | 6.0 | 0.00 | 0.00 | 0.00 | 99 | 1012.4 |
| 20260509173933 | 52 | 56 | 1.0 | 8.0 | 0.00 | 0.00 | 0.00 | 99 | 1012.4 |
| 20260509173432 | 53 | 123 | 2.0 | 6.0 | 0.00 | 0.00 | 0.00 | 99 | 1012.6 |
| 20260509172929 | 53 | 113 | 0.0 | 5.0 | 0.00 | 0.00 | 0.00 | 99 | 1012.5 |
| 20260509172426 | 53 | 142 | 5.0 | 8.0 | 0.00 | 0.00 | 0.00 | 99 | 1012.3 |
| 20260509171922 | 53 | 165 | 2.0 | 9.0 | 0.00 | 0.00 | 0.00 | 99 | 1012.5 |
| 20260509171418 | 53 | 155 | 2.0 | 7.0 | 0.00 | 0.00 | 0.00 | 99 | 1012.4 |
| 20260509170915 | 53 | 76 | 0.0 | 5.0 | 0.00 | 0.00 | 0.00 | 99 | 1012.5 |
| 20260509170410 | 53 | 138 | 2.0 | 7.0 | 0.00 | 0.00 | 0.00 | 99 | 1012.5 |
| 20260509165907 | 53 | 137 | 0.0 | 5.0 | 0.00 | 0.00 | 0.00 | 99 | 1012.3 |
| 20260509165400 | 53 | 154 | 0.0 | 5.0 | 0.00 | 0.00 | 0.00 | 99 | 1012.5 |
| 20260509164856 | 53 | 234 | 1.0 | 3.0 | 0.00 | 0.00 | 0.00 | 99 | 1012.4 |
| 20260509164353 | 53 | 322 | 2.0 | 3.0 | 0.00 | 0.00 | 0.00 | 99 | 1012.5 |
| 20260509163849 | 53 | 229 | 2.0 | 5.0 | 0.00 | 0.00 | 0.00 | 99 | 1012.4 |
| 20260509163346 | 53 | 274 | 1.0 | 3.0 | 0.00 | 0.00 | 0.00 | 99 | 1012.4 |
| 20260509162845 | 53 | 234 | 0.0 | 9.0 | 0.00 | 0.00 | 0.00 | 99 | 1012.7 |
| 20260509162338 | 53 | 51 | 8.0 | 9.0 | 0.00 | 0.00 | 0.00 | 99 | 1012.6 |
| 20260509161834 | 52 | 51 | 8.0 | 9.0 | 0.00 | 0.00 | 0.00 | 99 | 1012.6 |
| 20260509161331 | 53 | 51 | 8.0 | 9.0 | 0.00 | 0.00 | 0.00 | 99 | 1012.7 |
| 20260509160827 | 53 | 51 | 8.0 | 9.0 | 0.00 | 0.00 | 0.00 | 99 | 1012.6 |
| 20260509160323 | 53 | 51 | 8.0 | 9.0 | 0.00 | 0.00 | 0.00 | 99 | 1012.6 |
| 20260509155818 | 53 | 81 | 4.0 | 10.0 | 0.00 | 0.00 | 0.00 | 99 | 1012.5 |
| 20260509155315 | 53 | 129 | 2.0 | 8.0 | 0.00 | 0.00 | 0.00 | 99 | 1012.6 |
| 20260509154811 | 53 | 99 | 3.0 | 8.0 | 0.00 | 0.00 | 0.00 | 99 | 1012.8 |
| 20260509154308 | 53 | 105 | 6.0 | 8.0 | 0.00 | 0.00 | 0.00 | 99 | 1012.5 |
| 20260509153805 | 53 | 49 | 3.0 | 6.0 | 0.00 | 0.00 | 0.00 | 99 | 1012.6 |
| 20260509153301 | 53 | 103 | 5.0 | 6.0 | 0.00 | 0.00 | 0.00 | 99 | 1012.6 |
| 20260509152758 | 52 | 121 | 4.0 | 7.0 | 0.00 | 0.00 | 0.00 | 99 | 1012.9 |
| 20260509152254 | 52 | 53 | 2.0 | 6.0 | 0.00 | 0.00 | 0.00 | 99 | 1012.7 |
| 20260509151751 | 53 | 108 | 3.0 | 5.0 | 0.00 | 0.00 | 0.00 | 99 | 1012.8 |
| 20260509151247 | 52 | 39 | 0.0 | 4.0 | 0.00 | 0.00 | 0.00 | 99 | 1012.9 |
| 20260509150745 | 52 | 117 | 3.0 | 4.0 | 0.00 | 0.00 | 0.00 | 99 | 1012.7 |
| 20260509150238 | 52 | 72 | 2.0 | 4.0 | 0.00 | 0.00 | 0.00 | 99 | 1012.9 |
| 20260509145735 | 51 | 96 | 0.0 | 3.0 | 0.00 | 0.00 | 0.00 | 99 | 1012.8 |
| 20260509145234 | 51 | 263 | 1.0 | 2.0 | 0.00 | 0.00 | 0.00 | 99 | 1012.9 |
| 20260509144732 | 51 | 89 | 3.0 | 4.0 | 0.00 | 0.00 | 0.00 | 99 | 1012.6 |
| 20260509144228 | 51 | 93 | 1.0 | 2.0 | 0.00 | 0.00 | 0.00 | 99 | 1013.1 |
| 20260509143725 | 51 | 61 | 1.0 | 4.0 | 0.00 | 0.00 | 0.00 | 99 | 1012.8 |
| 20260509143223 | 51 | 46 | 3.0 | 3.0 | 0.00 | 0.00 | 0.00 | 99 | 1013.0 |
| 20260509142718 | 51 | 114 | 2.0 | 6.0 | 0.00 | 0.00 | 0.00 | 99 | 1013.3 |
| 20260509142215 | 51 | 109 | 2.0 | 3.0 | 0.00 | 0.00 | 0.00 | 99 | 1013.2 |
| 20260509141711 | 51 | 58 | 2.0 | 4.0 | 0.00 | 0.00 | 0.00 | 99 | 1013.0 |
| 20260509141208 | 51 | 95 | 6.0 | 6.0 | 0.00 | 0.00 | 0.00 | 99 | 1013.1 |
| 20260509140704 | 51 | 28 | 0.0 | 4.0 | 0.00 | 0.00 | 0.00 | 99 | 1013.0 |
| 20260509140202 | 51 | 6 | 0.0 | 4.0 | 0.00 | 0.00 | 0.00 | 99 | 1013.0 |
| 20260509135659 | 51 | 233 | 0.0 | 5.0 | 0.00 | 0.00 | 0.00 | 99 | 1012.9 |
| 20260509135157 | 51 | 30 | 1.0 | 4.0 | 0.00 | 0.00 | 0.00 | 99 | 1013.2 |
| 20260509134653 | 51 | 58 | 3.0 | 4.0 | 0.00 | 0.00 | 0.00 | 99 | 1013.0 |
| 20260509134151 | 51 | 112 | 3.0 | 5.0 | 0.00 | 0.00 | 0.00 | 99 | 1012.9 |
| 20260509133648 | 50 | 232 | 0.0 | 2.0 | 0.00 | 0.00 | 0.00 | 99 | 1012.9 |
| 20260509133145 | 51 | 13 | 0.0 | 2.0 | 0.00 | 0.00 | 0.00 | 99 | 1012.9 |
| 20260509132643 | 50 | 102 | 0.0 | 2.0 | 0.00 | 0.00 | 0.00 | 99 | 1012.9 |
| 20260509132141 | 50 | 298 | 1.0 | 2.0 | 0.00 | 0.00 | 0.00 | 99 | 1012.9 |
| 20260509131637 | 50 | 218 | 0.0 | 3.0 | 0.00 | 0.00 | 0.00 | 99 | 1012.9 |
| 20260509131134 | 50 | 164 | 0.0 | 1.0 | 0.00 | 0.00 | 0.00 | 99 | 1012.7 |
| 20260509130630 | 50 | 89 | 1.0 | 4.0 | 0.00 | 0.00 | 0.00 | 99 | 1012.8 |
| 20260509130127 | 50 | 62 | 2.0 | 4.0 | 0.00 | 0.00 | 0.00 | 99 | 1012.9 |
| 20260509125623 | 50 | 45 | 2.0 | 3.0 | 0.00 | 0.00 | 0.00 | 99 | 1012.6 |
| 20260509125120 | 50 | 73 | 3.0 | 6.0 | 0.00 | 0.00 | 0.00 | 99 | 1012.7 |
| 20260509124616 | 50 | 333 | 2.0 | 4.0 | 0.00 | 0.00 | 0.00 | 99 | 1012.6 |
| 20260509124114 | 50 | 53 | 2.0 | 3.0 | 0.00 | 0.00 | 0.00 | 99 | 1012.6 |
| 20260509123612 | 50 | 60 | 3.0 | 3.0 | 0.00 | 0.00 | 0.00 | 99 | 1012.5 |
| 20260509123108 | 49 | 50 | 2.0 | 3.0 | 0.00 | 0.00 | 0.00 | 99 | 1012.6 |
| 20260509122604 | 49 | 29 | 0.0 | 4.0 | 0.00 | 0.00 | 0.00 | 99 | 1012.3 |
| 20260509122102 | 49 | 27 | 1.0 | 3.0 | 0.00 | 0.00 | 0.00 | 99 | 1012.6 |
| 20260509121558 | 49 | 322 | 0.0 | 3.0 | 0.00 | 0.00 | 0.00 | 99 | 1012.7 |
| 20260509121056 | 49 | 309 | 0.0 | 3.0 | 0.00 | 0.00 | 0.00 | 99 | 1012.7 |
| 20260509120554 | 49 | 50 | 0.0 | 2.0 | 0.00 | 0.00 | 0.00 | 99 | 1012.5 |
| 20260509120052 | 49 | 248 | 0.0 | 2.0 | 0.00 | 0.00 | 0.00 | 99 | 1012.7 |
| 20260509115548 | 49 | 16 | 0.0 | 2.0 | 0.00 | 0.00 | 0.00 | 99 | 1013.0 |
| 20260509115046 | 49 | 252 | 0.0 | 2.0 | 0.00 | 0.00 | 0.00 | 99 | 1012.7 |
| 20260509114544 | 48 | 49 | 0.0 | 3.0 | 0.00 | 0.00 | 0.00 | 99 | 1012.9 |
| 20260509114043 | 49 | 304 | 2.0 | 4.0 | 0.00 | 0.00 | 0.00 | 99 | 1012.8 |
| 20260509113540 | 49 | 119 | 0.0 | 3.0 | 0.00 | 0.00 | 0.00 | 99 | 1013.0 |
| 20260509113038 | 49 | 52 | 2.0 | 3.0 | 0.00 | 0.00 | 0.00 | 99 | 1012.9 |
| 20260509112534 | 49 | 223 | 1.0 | 3.0 | 0.00 | 0.00 | 0.00 | 99 | 1013.0 |
| 20260509112031 | 48 | 125 | 1.0 | 3.0 | 0.00 | 0.00 | 0.00 | 99 | 1012.9 |
| 20260509111528 | 49 | 26 | 2.0 | 3.0 | 0.00 | 0.00 | 0.00 | 99 | 1013.0 |
| 20260509111025 | 48 | 82 | 2.0 | 3.0 | 0.00 | 0.00 | 0.00 | 99 | 1013.1 |
| 20260509110522 | 49 | 74 | 3.0 | 4.0 | 0.00 | 0.00 | 0.00 | 99 | 1013.0 |
| 20260509110019 | 49 | 129 | 1.0 | 4.0 | 0.00 | 0.00 | 0.00 | 99 | 1013.1 |
| 20260509105518 | 48 | 26 | 0.0 | 3.0 | 0.00 | 0.00 | 0.00 | 99 | 1012.9 |
| 20260509105015 | 48 | 54 | 2.0 | 3.0 | 0.00 | 0.00 | 0.00 | 99 | 1013.1 |
| 20260509104512 | 48 | 99 | 1.0 | 2.0 | 0.00 | 0.00 | 0.00 | 99 | 1013.0 |
| 20260509104009 | 48 | 69 | 2.0 | 3.0 | 0.00 | 0.00 | 0.00 | 99 | 1013.0 |
| 20260509103507 | 48 | 54 | 1.0 | 3.0 | 0.00 | 0.00 | 0.00 | 99 | 1012.9 |
| 20260509103004 | 48 | 256 | 0.0 | 3.0 | 0.00 | 0.00 | 0.00 | 99 | 1012.8 |
| 20260509102502 | 48 | 50 | 1.0 | 3.0 | 0.00 | 0.00 | 0.00 | 99 | 1013.1 |
| 20260509101958 | 48 | 24 | 3.0 | 3.0 | 0.00 | 0.00 | 0.00 | 99 | 1013.0 |
| 20260509101454 | 48 | 33 | 2.0 | 4.0 | 0.00 | 0.00 | 0.00 | 99 | 1013.0 |
| 20260509100951 | 48 | 42 | 2.0 | 3.0 | 0.00 | 0.00 | 0.00 | 99 | 1013.1 |
| 20260509100448 | 48 | 73 | 1.0 | 3.0 | 0.00 | 0.00 | 0.00 | 99 | 1012.8 |
| 20260509095945 | 48 | 87 | 1.0 | 3.0 | 0.00 | 0.00 | 0.00 | 99 | 1012.9 |
| 20260509095442 | 48 | 70 | 2.0 | 3.0 | 0.00 | 0.00 | 0.00 | 99 | 1012.8 |
| 20260509094939 | 48 | 48 | 2.0 | 3.0 | 0.00 | 0.00 | 0.00 | 99 | 1012.8 |
| 20260509094435 | 48 | 58 | 1.0 | 3.0 | 0.00 | 0.00 | 0.00 | 99 | 1013.0 |
| 20260509093933 | 48 | 22 | 0.0 | 3.0 | 0.00 | 0.00 | 0.00 | 99 | 1012.9 |
| 20260509093431 | 48 | 126 | 1.0 | 2.0 | 0.00 | 0.00 | 0.00 | 99 | 1012.9 |
| 20260509092929 | 48 | 51 | 2.0 | 3.0 | 0.00 | 0.00 | 0.00 | 99 | 1012.8 |
| 20260509092426 | 48 | 26 | 0.0 | 2.0 | 0.00 | 0.00 | 0.00 | 99 | 1012.9 |
| 20260509091925 | 48 | 307 | 0.0 | 3.0 | 0.00 | 0.00 | 0.00 | 99 | 1012.9 |
| 20260509091421 | 48 | 168 | 0.0 | 2.0 | 0.00 | 0.00 | 0.00 | 99 | 1013.1 |
| 20260509090918 | 48 | 328 | 0.0 | 2.0 | 0.00 | 0.00 | 0.00 | 99 | 1013.1 |
| 20260509090415 | 48 | 173 | 0.0 | 2.0 | 0.00 | 0.00 | 0.00 | 99 | 1013.2 |
| 20260509085913 | 48 | 92 | 1.0 | 2.0 | 0.00 | 0.00 | 0.00 | 99 | 1013.2 |
| 20260509085410 | 48 | 76 | 1.0 | 3.0 | 0.00 | 0.00 | 0.00 | 99 | 1013.5 |
| 20260509084906 | 48 | 57 | 2.0 | 4.0 | 0.00 | 0.00 | 0.00 | 99 | 1013.4 |
| 20260509084403 | 48 | 70 | 2.0 | 3.0 | 0.00 | 0.00 | 0.00 | 99 | 1013.4 |
| 20260509083901 | 48 | 62 | 1.0 | 2.0 | 0.00 | 0.00 | 0.00 | 99 | 1013.6 |
| 20260509083358 | 48 | 48 | 2.0 | 2.0 | 0.00 | 0.00 | 0.00 | 99 | 1013.7 |
| 20260509082854 | 48 | 73 | 0.0 | 2.0 | 0.00 | 0.00 | 0.00 | 99 | 1013.6 |
| 20260509082351 | 48 | 126 | 0.0 | 1.0 | 0.00 | 0.00 | 0.00 | 99 | 1013.8 |
| 20260509081848 | 48 | 68 | 2.0 | 3.0 | 0.00 | 0.00 | 0.00 | 99 | 1013.6 |
| 20260509081345 | 48 | 77 | 2.0 | 3.0 | 0.00 | 0.00 | 0.00 | 99 | 1013.7 |
| 20260509080843 | 48 | 32 | 0.0 | 2.0 | 0.00 | 0.00 | 0.00 | 99 | 1013.9 |
| 20260509080341 | 48 | 47 | 2.0 | 3.0 | 0.00 | 0.00 | 0.00 | 99 | 1013.7 |
| 20260509075839 | 48 | 267 | 0.0 | 2.0 | 0.00 | 0.00 | 0.00 | 99 | 1013.8 |
| 20260509075335 | 48 | 46 | 1.0 | 2.0 | 0.00 | 0.00 | 0.00 | 99 | 1013.8 |
| 20260509074833 | 48 | 56 | 1.0 | 3.0 | 0.00 | 0.00 | 0.00 | 99 | 1013.9 |
| 20260509074331 | 48 | 173 | 0.0 | 2.0 | 0.00 | 0.00 | 0.00 | 99 | 1013.9 |
| 20260509073826 | 48 | 98 | 1.0 | 3.0 | 0.00 | 0.00 | 0.00 | 99 | 1013.8 |
| 20260509073323 | 48 | 74 | 2.0 | 4.0 | 0.00 | 0.00 | 0.00 | 99 | 1013.7 |
| 20260509072820 | 48 | 72 | 2.0 | 3.0 | 0.00 | 0.00 | 0.00 | 99 | 1013.8 |
| 20260509072316 | 48 | 48 | 3.0 | 5.0 | 0.00 | 0.00 | 0.00 | 99 | 1013.7 |
| 20260509071813 | 48 | 92 | 4.0 | 5.0 | 0.00 | 0.00 | 0.00 | 99 | 1013.8 |
| 20260509071310 | 48 | 60 | 0.0 | 3.0 | 0.00 | 0.00 | 0.00 | 99 | 1013.6 |
| 20260509070807 | 48 | 89 | 3.0 | 4.0 | 0.00 | 0.00 | 0.00 | 99 | 1013.8 |
| 20260509070304 | 48 | 85 | 3.0 | 4.0 | 0.00 | 0.00 | 0.00 | 99 | 1013.7 |
| 20260509065800 | 48 | 54 | 2.0 | 3.0 | 0.00 | 0.00 | 0.00 | 99 | 1013.5 |
| 20260509065256 | 48 | 71 | 2.0 | 4.0 | 0.00 | 0.00 | 0.00 | 99 | 1013.6 |
| 20260509064752 | 48 | 221 | 0.0 | 3.0 | 0.00 | 0.00 | 0.00 | 99 | 1013.6 |
| 20260509064250 | 48 | 24 | 0.0 | 3.0 | 0.00 | 0.00 | 0.00 | 99 | 1014.2 |
| 20260509063747 | 48 | 80 | 2.0 | 2.0 | 0.00 | 0.00 | 0.00 | 99 | 1014.0 |
| 20260509063243 | 48 | 45 | 1.0 | 3.0 | 0.00 | 0.00 | 0.00 | 99 | 1013.9 |
| 20260509062741 | 48 | 64 | 2.0 | 3.0 | 0.00 | 0.00 | 0.00 | 99 | 1013.9 |
| 20260509062238 | 48 | 89 | 0.0 | 3.0 | 0.00 | 0.00 | 0.00 | 99 | 1014.2 |
| 20260509061735 | 48 | 54 | 2.0 | 3.0 | 0.00 | 0.00 | 0.00 | 99 | 1014.4 |
| 20260509061233 | 48 | 89 | 0.0 | 2.0 | 0.00 | 0.00 | 0.00 | 99 | 1014.5 |
| 20260509060730 | 48 | 68 | 1.0 | 2.0 | 0.00 | 0.00 | 0.00 | 99 | 1014.4 |
| 20260509060226 | 48 | 274 | 0.0 | 2.0 | 0.00 | 0.00 | 0.00 | 99 | 1014.8 |
| 20260509055722 | 48 | 142 | 0.0 | 2.0 | 0.00 | 0.00 | 0.00 | 99 | 1014.7 |
| 20260509055218 | 48 | 106 | 2.0 | 4.0 | 0.00 | 0.00 | 0.00 | 99 | 1014.9 |
| 20260509054715 | 48 | 93 | 2.0 | 2.0 | 0.00 | 0.00 | 0.00 | 99 | 1014.7 |
| 20260509054212 | 48 | 13 | 0.0 | 3.0 | 0.00 | 0.00 | 0.00 | 99 | 1014.8 |
| 20260509053710 | 48 | 125 | 2.0 | 3.0 | 0.00 | 0.00 | 0.00 | 99 | 1014.8 |
| 20260509053207 | 48 | 26 | 0.0 | 3.0 | 0.00 | 0.00 | 0.00 | 99 | 1014.8 |
| 20260509052705 | 48 | 85 | 1.0 | 3.0 | 0.00 | 0.00 | 0.00 | 99 | 1014.4 |
| 20260509052202 | 48 | 59 | 1.0 | 2.0 | 0.00 | 0.00 | 0.00 | 99 | 1014.3 |
| 20260509051700 | 48 | 74 | 1.0 | 3.0 | 0.00 | 0.00 | 0.00 | 99 | 1014.1 |
| 20260509051157 | 48 | 118 | 0.0 | 3.0 | 0.00 | 0.00 | 0.00 | 99 | 1014.1 |
| 20260509050654 | 48 | 97 | 2.0 | 2.0 | 0.00 | 0.00 | 0.00 | 99 | 1014.0 |
| 20260509050150 | 48 | 150 | 0.0 | 2.0 | 0.00 | 0.00 | 0.00 | 99 | 1014.1 |
| 20260509045648 | 48 | 79 | 3.0 | 5.0 | 0.00 | 0.00 | 0.00 | 99 | 1014.0 |
| 20260509045145 | 48 | 97 | 4.0 | 5.0 | 0.00 | 0.00 | 0.00 | 99 | 1013.8 |
| 20260509044642 | 48 | 18 | 2.0 | 3.0 | 0.00 | 0.00 | 0.00 | 99 | 1013.8 |
| 20260509044139 | 48 | 27 | 3.0 | 4.0 | 0.00 | 0.00 | 0.00 | 99 | 1014.1 |
| 20260509043636 | 48 | 103 | 0.0 | 2.0 | 0.00 | 0.00 | 0.00 | 99 | 1014.3 |
| 20260509043131 | 48 | 129 | 0.0 | 2.0 | 0.00 | 0.00 | 0.00 | 99 | 1014.0 |
| 20260509042628 | 48 | 126 | 0.0 | 2.0 | 0.00 | 0.00 | 0.00 | 99 | 1014.1 |
| 20260509042124 | 48 | 62 | 0.0 | 3.0 | 0.00 | 0.00 | 0.00 | 99 | 1014.3 |
| 20260509041621 | 48 | 83 | 2.0 | 3.0 | 0.00 | 0.00 | 0.00 | 99 | 1014.4 |
| 20260509041118 | 48 | 246 | 0.0 | 1.0 | 0.00 | 0.00 | 0.00 | 99 | 1014.2 |
| 20260509040617 | 48 | 93 | 2.0 | 4.0 | 0.00 | 0.00 | 0.00 | 99 | 1014.4 |
| 20260509040113 | 48 | 96 | 1.0 | 2.0 | 0.00 | 0.00 | 0.00 | 99 | 1014.4 |
| 20260509035610 | 47 | 89 | 0.0 | 3.0 | 0.00 | 0.00 | 0.00 | 99 | 1014.3 |
| 20260509035106 | 47 | 93 | 1.0 | 3.0 | 0.00 | 0.00 | 0.00 | 99 | 1014.3 |
| 20260509034605 | 47 | 0 | 0.0 | 1.0 | 0.00 | 0.00 | 0.00 | 99 | 1014.1 |
| 20260509034101 | 47 | 38 | 1.0 | 2.0 | 0.00 | 0.00 | 0.00 | 99 | 1014.2 |